Weather Roundup
Issued by NWS Springfield, MO

Home | Current Version | Previous Version | Text Only | Print | Product List | Glossary On
Versions: 1 2 3 4 5 6 7 8 9 10 11 12 13 14 15 16 17 18 19 20 21 22 23 24 25 26 27 28 29 30 31 32 33 34 35 36 37 38 39 40 41 42 43 44 45 46 47 48 49 50
000
NZUS99 KSGF 011507
HRRSGF

HOURLY WEATHER
NATIONAL WEATHER SERVICE SPRINGFIELD MO
1000 AM CDT FRI AUG 01 2014

......SGF CWA......

CITY           SKY/WX    TMP DP  RH WIND       PRES   REMARKS
SPRINGFIELD    CLOUDY    66  64  93 CALM      30.13R FOG
JOPLIN         CLOUDY    70  65  84 VRB5      30.12S
WEST PLAINS    CLOUDY    69  63  81 CALM      30.13F
ROLLA          SUNNY     75  62  64 VRB5      30.10R
OSAGE BEACH    SUNNY     73  64  73 CALM      30.10S
BRANSON        CLOUDY    70  68  94 CALM      30.13S

......SURROUNDING SGF CWA......

CITY           SKY/WX    TMP DP  RH WIND       PRES   REMARKS
CHANUTE        SUNNY     73  68  84 SW3       30.10S
PARSONS        CLOUDY    69  67  93 S5        30.11S
COFFEYVILLE    CLOUDY    69  67  93 CALM      30.10S FOG
EMPORIA        SUNNY     79  63  57 SW9       30.08S
GROVE OK       PTSUNNY   72  72 100 CALM      30.12S
ROGERS AR      PTSUNNY   70  64  83 N5        30.14R
SILOAM SPRINGS CLOUDY    72  61  68 CALM      30.14R
HARRISON AR    CLOUDY    69  66  90 VRB3      30.13S
NEAR YELLVILLE CLOUDY    70  64  83 NE3       30.12S

......KANSAS AND MISSOURI......

CITY           SKY/WX    TMP DP  RH WIND       PRES   REMARKS
KANSAS CTY INT PTSUNNY   73  63  70 E5        30.09S
DOWNTOWN KC    CLOUDY    73  62  68 E6        30.08S
COLUMBIA       MOSUNNY   75  61  61 NW7       30.10R
SEDALIA        PTSUNNY   73  66  78 N6        30.11R
ST JOSEPH      CLOUDY    71  65  81 E7        30.08S
ST LOUIS       MOSUNNY   80  65  59 CALM      30.09F
SPIRIT OF STL  MOSUNNY   78  66  66 CALM      30.08S
KIRKSVILLE     PTSUNNY   74  61  63 NW5       30.11S
WICHITA        MOSUNNY   77  59  53 SW12      30.07S
TOPEKA         PTSUNNY   75  63  66 S5        30.07F
OLATHE         CLOUDY    73  63  70 VRB3      30.08F

......TENNESSEE......

CITY           SKY/WX    TMP DP  RH WIND       PRES   REMARKS
MEMPHIS        PTSUNNY   77  65  66 NE6       30.07F
NASHVILLE      MOSUNNY   80  63  55 E5        30.09F

......ARKANSAS.......

CITY           SKY/WX    TMP DP  RH WIND       PRES   REMARKS
FAYETTEVILLE   CLOUDY    70  64  83 CALM      30.13R
FT SMITH       CLOUDY    73  67  81 NE6       30.09S
LITTLE ROCK    CLOUDY    73  64  73 NE9       30.07F

......OKLAHOMA.......

CITY           SKY/WX    TMP DP  RH WIND       PRES   REMARKS
TULSA          MOSUNNY   74  65  73 VRB5      30.08F
PONCA CITY     SUNNY     74  67  78 S5        30.09S
MCALESTER      CLOUDY    71  66  84 E5        30.10S
OKLAHOMA CITY  PTSUNNY   75  64  68 E5        30.11S

......IOWA............

CITY           SKY/WX    TMP DP  RH WIND       PRES   REMARKS
DES MOINES     MOSUNNY   75  61  61 CALM      30.09S
QUAD CITIES    SUNNY     75  63  66 SW7       30.09S

......ILLINOIS........

CITY           SKY/WX    TMP DP  RH WIND       PRES   REMARKS
QUINCY         MOSUNNY   76  60  57 CALM      30.09S
CHICAGO        MOSUNNY   78  56  46 VRB6      30.08S



USA.gov is the U.S. government's official web portal to all federal, state and local government web resources and services.